Regional Weather Roundup
Issued by NWS Northern Indiana

Home | Current Version | Previous Version | Text Only | Print | Product List | Glossary On
Versions: 1 2 3 4 5 6 7 8 9 10 11 12 13 14 15 16 17 18 19 20 21 22 23 24 25 26 27 28 29 30 31 32 33 34 35 36 37 38 39 40 41 42 43 44 45 46 47 48 49 50
000
ASUS43 KIWX 300500
RWRIWX

KIWX WEATHER ROUNDUP
NATIONAL WEATHER SERVICE NORTHERN INDIANA
100 AM EDT MON MAY 30 2016

NOTE: "FAIR" INDICATES FEW OR NO CLOUDS BELOW 12,000 FEET WITH NO
SIGNIFICANT WEATHER AND/OR OBSTRUCTIONS TO VISIBILITY.

* THESE STATIONS ARE NOT UNDER NWS QUALITY CONTROL. THEY ALSO MAY NOT
  REPORT WEATHER SUCH AS PRECIPITATION OR FOG.

INZ001>027-300600-
NORTHERN INDIANA

CITY           SKY/WX    TMP DP  RH WIND       PRES   REMARKS
SOUTH BEND     CLEAR     64  57  78 S5        30.02R
GOSHEN         CLEAR     61  55  81 S3        30.01S
ANGOLA*          N/A     61  54  77 CALM      30.01S
FORT WAYNE     PTCLDY    66  56  70 CALM      30.03R

$$
INZ028>050-300600-
CENTRAL INDIANA

CITY           SKY/WX    TMP DP  RH WIND       PRES   REMARKS
LAFAYETTE      CLEAR     65  57  75 W3        30.02S
KOKOMO*        CLEAR     66  54  63 W3        30.03R
MUNCIE*        CLEAR     66  56  70 CALM      30.03R
INDIANAPOLIS   MOCLDY    69  56  62 W5        30.02S

$$
MIZ043>046-050>051-056>058-064>065-071>073-077>080-300600-
SOUTHWEST LOWER MICHIGAN

CITY           SKY/WX    TMP DP  RH WIND       PRES   REMARKS
BATTLE CREEK   CLEAR     63  57  81 SW7       30.00R
BENTON HARBOR  CLEAR     61  56  83 CALM      29.99S
COLDWATER*     CLEAR     61  55  82 CALM      30.01S
HILLSDALE*     CLEAR     61  55  78 CALM      30.02R
HOLLAND        CLEAR     63  55  75 CALM      29.98S
GRAND RAPIDS   CLEAR     65  57  75 W6        29.97S
KALAMAZOO      CLEAR     65  56  72 SW6       30.00R
STURGIS*       CLEAR     62  56  80 CALM      30.01R
THREE RIVERS*  FAIR      64  58  82 CALM      30.01S

$$
OHZ001>008-015>018-024>025-300600-
NORTHWEST OHIO

CITY           SKY/WX    TMP DP  RH WIND       PRES   REMARKS
DEFIANCE       CLOUDY    64  56  75 SW3       30.01S
FINDLAY        CLEAR     72  54  53 N3        30.01R
TOLEDO EXPRESS CLEAR     65  56  72 CALM      30.00S
TOLEDO METCALF PTCLDY    70  56  61 NW6       30.00S
LIMA           PTCLDY    70  58  65 N5        30.02R

$$
AND FOR LAKE MICHIGAN COASTAL AND OPEN LAKE BUOY OBSERVATIONS

STATION/POSITION TEMP    WIND        PRES    VSBY  WAVE
                 AIR SEA DIR/SP/G                  HT/PER
                 (F)     (DEG/KT/KT) (MB)    (MI)  (FT/S)
CALUMET HARBOR    73     220/  4/  6 1015.4
MICHIGAN CITY     69     210/  9/  9   N/A
BURNS HARBOR      68     240/  6/  8 1016.3S
SAINT JOSEPH      66     180/  7/  9 1016.6R
SOUTH LAKE BUOY   57 51  230/  6/  8 1014.6          1
4 MI NW BRIDGMAN  62 63  240/  4/  6   N/A           1
MICHIGAN CITY     62 59  230/  4/  4   N/A           1

$$
&&




USA.gov is the U.S. government's official web portal to all federal, state and local government web resources and services.